Location: De Greiden
(52.9496°N, 5.9137°E)
Time: 23:13:51
(UTC+00:00)

NOAA 12 - Pass Details

Date: 24 January 2021
Orbit: 796 x 814 km, 98.5° (Epoch: 01 March)

Event Time Altitude Azimuth Distance (km) Brightness Sun altitude
Rises 16:56:57 0° 169° (S) 3,289 7.4 -7.6°
Reaches altitude 10° 16:59:17 10° 171° (S) 2,364 6.7 -8.0°
Maximum altitude 17:04:30 72° 256° (WSW) 841 4.4 -8.7°
Drops below altitude 10° 17:09:46 10° 341° (NNW) 2,386 6.6 -9.5°
Sets 17:12:08 0° 344° (NNW) 3,323 7.3 -9.8°
